#timestamp,LO_Frequency,Hit,StdDev 
1566496815.6,286047005.9,Y
1566496835.4,286047004.1,P
1566496855.3,286047001.1,N
1566496875.1,286046998.7,N
1566496895.9,286047000.1,N
1566496915.7,286047002.0,N
1566496935.5,286046999.9,N
1566496955.4,286047002.8,N
1566496975.2,286047002.3,N
1566496995.0,286047003.9,N
1566496996.0,286047003.9,N
1566497015.8,286047002.5,N
1566497035.6,286047002.1,N
1566497055.5,286046999.6,N
1566497075.3,286046997.9,N
1566497095.1,286046996.9,N
1566497115.9,286046999.2,N
1566497135.7,286046998.6,N
1566497155.5,286046998.1,N
1566497175.4,286047000.9,N
1566497195.2,286046999.6,N
1566497215.1,286046999.2,N
1566497216.0,286046999.2,N
1566497235.8,286046999.5,N
1566497255.6,286046996.5,N
1566497275.5,286046999.6,N
1566497295.3,286046999.2,N
1566497315.1,286046999.5,N
1566497335.9,286046998.8,N
1566497355.7,286047000.5,N
1566497375.6,286046999.2,N
1566497395.4,286046996.5,N
1566497415.2,286046998.2,N
1566497435.1,286047002.3,N
1566497436.0,286047002.3,N
1566497455.8,286046999.8,N
1566497475.6,286046998.1,N
1566497495.5,286046998.3,N
1566497515.3,286046998.6,N
1566497535.2,286047002.5,N
1566497555.9,286047001.2,N
1566497575.7,286046999.2,N
1566497595.6,286046996.6,N
1566497615.4,286046998.4,N
1566497635.2,286046998.9,N
1566497655.1,286047002.5,N
1566497656.0,286047002.5,N
1566497675.8,286046999.7,N
1566497695.7,286047000.3,N
1566497715.5,286047000.4,N
1566497735.3,286047000.6,N
1566497755.2,286047001.8,N
1566497775.0,286047002.5,N
1566497775.9,286047002.5,N
1566497795.8,286046999.9,N
1566497815.6,286047001.1,N
1566497835.4,286046998.9,N
1566497855.3,286046998.9,N
1566497875.1,286047001.2,N
1566497895.8,286046998.4,N
1566497915.7,286046999.7,N
1566497935.5,286047002.1,N
1566497955.4,286047004.1,N
1566497975.2,286047004.0,N
1566497995.0,286047004.0,N
1566497995.9,286047004.0,N
1566498015.8,286047003.9,N
1566498035.6,286047003.9,N
1566498055.4,286047002.7,N
1566498075.3,286047002.2,N
1566498095.1,286047004.2,N
1566498115.9,286047003.9,N
1566498135.7,286047001.4,N
1566498155.5,286047001.3,N
1566498175.4,286047003.9,N
1566498195.2,286047004.4,N
1566498215.0,286047000.3,N
1566498215.9,286047000.3,N
1566498235.8,286047001.1,N
1566498255.6,286047001.2,N
1566498275.5,286047000.8,N
1566498295.3,286046998.7,N
1566498315.1,286047000.3,N
1566498335.9,286047004.4,N
1566498355.7,286047001.9,N
1566498375.5,286047001.9,N
1566498395.4,286047002.2,N
1566498415.2,286047004.1,N
1566498435.1,286047002.1,N
1566498436.0,286047002.1,N
1566498455.8,286047001.9,N
1566498475.6,286047002.9,N
1566498495.5,286047005.2,Y
1566498515.3,286047002.1,P
1566498535.2,286047000.7,P
1566498555.9,286046998.9,N
1566498575.7,286046996.7,N
1566498595.6,286046998.9,N
1566498615.4,286047000.6,N
1566498635.2,286047004.0,N
1566498655.1,286047003.9,N
1566498656.0,286047003.9,N
1566498675.8,286047002.7,N
1566498695.7,286047002.8,N
1566498715.5,286047002.7,N
1566498735.3,286047002.7,N
1566498755.2,286047002.4,N
1566498775.0,286047002.1,N
1566498775.9,286047002.1,N
1566498795.7,286047004.1,N
1566498815.6,286047004.3,N
1566498835.4,286047004.1,N
1566498855.3,286047004.4,N
1566498875.1,286047001.3,N
1566498876.0,286047001.3,N
1566498895.8,286047003.8,N
1566498915.7,286047000.6,N
1566498935.5,286046998.6,N
1566498955.3,286047000.3,N
1566498975.2,286047000.8,N
1566498995.0,286047000.9,N
1566498995.9,286047000.9,N
1566499015.8,286046999.8,N
1566499035.6,286047000.1,N
1566499055.4,286047000.9,N
1566499075.3,286046996.6,N
1566499095.1,286047001.1,N
1566499115.9,286046998.8,N
1566499135.7,286047002.2,N
1566499155.5,286046998.2,N
1566499175.4,286046997.8,N
1566499195.2,286046997.3,N
1566499215.0,286046995.0,N
1566499215.9,286046995.0,N
1566499235.8,286046999.4,N
1566499255.6,286047000.4,N
1566499275.5,286046999.8,N
1566499295.3,286047000.1,N
1566499315.1,286047001.9,N
1566499335.9,286047004.0,N
1566499355.7,286047003.3,N
1566499375.5,286047005.5,N
1566499395.4,286047006.0,N
1566499415.2,286047005.2,N
1566499435.1,286047003.2,N
1566499436.0,286047003.2,N
1566499455.8,286046999.7,N
1566499475.6,286046999.7,N
1566499495.5,286047002.8,N
1566499515.3,286047001.6,N
1566499535.1,286047002.1,N
1566499555.9,286047002.1,N
1566499575.7,286046999.9,N
1566499595.6,286047002.6,N
1566499615.4,286047001.6,N
1566499635.2,286047000.2,N
1566499655.1,286047002.1,N
1566499656.0,286047002.1,N
1566499675.8,286047002.2,N
1566499695.6,286047003.7,N
1566499715.5,286047003.4,N
1566499735.3,286047005.6,N
1566499755.2,286047006.0,N
1566499775.9,286047005.6,N
1566499795.7,286047002.3,N
1566499815.6,286047000.1,N
1566499835.4,286047002.7,N
1566499855.3,286046999.7,N
1566499875.1,286047001.7,N
1566499876.0,286047001.7,N
1566499895.8,286047002.0,N
1566499915.7,286047002.7,N
1566499935.5,286047001.4,N
1566499955.3,286047001.3,N
1566499975.2,286047005.5,Y
1566499995.0,286047003.8,P
1566499995.9,286047003.8,P
1566500015.8,286047002.2,N
1566500035.6,286047001.1,N
1566500055.4,286047002.4,N
1566500075.3,286047000.1,N
1566500095.1,286047000.2,N
1566500115.9,286047004.3,Y
1566500135.7,286047001.0,P
1566500155.5,286047001.5,P
1566500175.4,286047002.6,P
1566500195.2,286047001.8,N
1566500215.1,286047004.0,Y
1566500216.0,286047004.0,P
1566500235.8,286047002.8,N
1566500255.6,286047000.3,N
1566500275.5,286046998.5,N
1566500295.3,286047000.8,N
1566500315.1,286046998.1,N
1566500335.9,286046998.3,N
1566500355.7,286047000.0,N
1566500375.6,286046998.7,N
1566500395.4,286046995.6,N
